This demonstration page uses our WeatherBlox Daily Observations layout. Learn more.

Left ArrowRight Arrow

41.86663, -103.66717

Hourly Observations for August 22, 2020

Temp ( °F °C ) Dew Point ( °F °C ) Humidity (%) Winds ( mph kmh ) Pressure ( in mb ) Visibility ( mi km ) Precip ( " mm )
12:53 am 00:53 Clear 66 18.9 54 12.2 65 65 VRB 3 6 29.80 1009 10 16 N/A
1:53 am 01:53 Clear 63 17.2 56 13.3 78 78 N 3 6 29.80 1009 10 16 N/A
2:53 am 02:53 Clear 61 16.1 54 12.2 78 78 WNW 6 9 29.81 1010 10 16 N/A
3:53 am 03:53 Clear 60 15.6 54 12.2 80 80 NNW 7 11 29.81 1010 10 16 N/A
4:53 am 04:53 Clear 59 15 55 12.8 87 87 NW 6 9 29.82 1010 10 16 N/A
5:53 am 05:53 Clear 58 14.4 55 12.8 90 90 NW 6 9 29.84 1010 9 14 N/A
6:53 am 06:53 Sunny 59 15 54 12.2 83 83 NNW 6 9 29.86 1011 8 13 N/A
7:53 am 07:53 Sunny 64 17.8 54 12.2 70 70 undefined N/A 29.88 1012 7 11 N/A
8:53 am 08:53 Sunny 65 18.3 55 12.8 70 70 NW 8 13 29.89 1012 7 11 N/A
9:53 am 09:53 Sunny 72 22.2 56 13.3 57 57 NW 7 11 29.89 1012 8 13 N/A
10:53 am 10:53 Sunny 80 26.7 57 13.9 45 45 VRB 6 9 29.89 1012 10 16 N/A
11:53 am 11:53 Sunny 85 29.4 57 13.9 39 39 N N/A 29.87 1012 10 16 N/A
12:53 pm 12:53 Sunny 90 32.2 58 14.4 34 34 VRB 3 6 29.85 1011 10 16 N/A
1:53 pm 13:53 Sunny 92 33.3 58 14.4 32 32 undefined N/A 29.85 1011 10 16 N/A
2:53 pm 14:53 Sunny 95 35 55 12.8 26 26 VRB 6 9 29.83 1010 10 16 N/A
3:53 pm 15:53 Sunny 95 35 50 10 22 22 E 6 9 29.81 1010 8 13 N/A
4:53 pm 16:53 Sunny 95 35 50 10 22 22 ESE 7 11 29.81 1010 7 11 N/A
5:53 pm 17:53 Sunny 94 34.4 52 11.1 24 24 E 6 9 29.81 1010 7 11 N/A
6:53 pm 18:53 Sunny 87 30.6 59 15 39 39 ESE 7 11 29.82 1010 7 11 N/A
7:53 pm 19:53 Clear 77 25 60 15.6 56 56 E 8 13 29.84 1011 7 11 N/A
8:53 pm 20:53 Clear 76 24.4 56 13.3 50 50 ESE 5 7 29.86 1011 7 11 N/A
9:53 pm 21:53 Clear 71 21.7 54 12.2 55 55 E 3 6 29.87 1012 7 11 N/A
10:53 pm 22:53 Clear 71 21.7 52 11.1 51 51 N N/A 29.86 1011 7 11 N/A
11:53 pm 23:53 Clear 69 20.6 55 12.8 61 61 E 8 13 29.86 1011 9 14 N/A

Powered by AerisWeather